, AK

(GMT )
Portage Glacier

Weather History for PATO - November, 2012

Change the Weather History Date:

Sunday, November 18, 2012

  Actual Average Record
Temperature  
Mean Temperature 18 °F -  
Max Temperature 21 °F - - ()
Min Temperature 12 °F - - ()
Degree Days  
Heating Degree Days 48    
Moisture  
Dew Point 17 °F    
Average Humidity 93    
Maximum Humidity 100    
Minimum Humidity 80    
Precipitation  
Precipitation 0.63 in - - ()
Sea Level Pressure  
Sea Level Pressure 29.16 in    
Wind  
Wind Speed 1 mph (WNW)    
Max Wind Speed 5 mph    
Max Gust Speed -    
Visibility 3 miles    
Events Fog , Snow    
Averages and records for this station are not official NWS values.
T = Trace of Precipitation, MM = Missing Value Source: NWS Daily Summary

Daily Weather History Graph

Daily Weather History Graph

Search for Another Location

Airport or City:

Trip Planner

Search our weather history database for the weather conditions in past years. The results will help you decide how hot, cold, wet, or windy it might be!

Date:

Astronomy

Nov. 18, 2012 Rise Set
Actual Time 9:08 AM AKST 4:12 PM AKST
Civil Twilight 8:15 AM AKST 5:04 PM AKST
Nautical Twilight 7:21 AM AKST 5:58 PM AKST
Astronomical Twilight 6:31 AM AKST 6:49 PM AKST
Moon 1:18 PM AKST (11/18) 10:12 PM AKST (11/18)
Length of Visible Light 8h 48m
Length of Day
7h 04m
Waxing Crescent, 31% of the Moon is Illuminated
Nov 18
Waxing Crescent
Nov 20
First Quarter
Nov 28
Full
Dec 6
Last Quarter
Dec 12
New

Hourly Weather History & Observations

Time (AKST) Temp. Windchill Dew Point Humidity Pressure Visibility Wind Dir Wind Speed Gust Speed Precip Events Conditions
12:13 AM 17.1 °F - 15.1 °F 92% 29.07 in 0.8 mi Calm Calm - 0.01 in Snow Light Snow
12:23 AM 17.1 °F - 15.1 °F 92% 29.07 in 1.2 mi Calm Calm - 0.02 in Snow Light Snow
12:53 AM 17.1 °F - 15.1 °F 92% 29.07 in 2.0 mi Calm Calm - 0.03 in Snow Light Snow
1:04 AM 17.1 °F 11.7 °F 15.1 °F 92% 29.07 in 1.2 mi Variable 3.5 mph - 0.00 in Snow Light Snow
1:30 AM 17.1 °F 11.7 °F 15.1 °F 92% 29.07 in 2.5 mi WNW 3.5 mph - 0.00 in Snow Light Snow
1:53 AM 17.1 °F - 15.1 °F 92% 29.08 in 2.0 mi Calm Calm - 0.01 in Snow Light Snow
2:33 AM 17.1 °F - 16.0 °F 96% 29.07 in 1.0 mi Calm Calm - 0.01 in Snow Light Snow
2:53 AM 17.1 °F 10.0 °F 16.0 °F 96% 29.08 in 1.2 mi West 4.6 mph - 0.02 in Snow Light Snow
3:07 AM 17.1 °F 11.7 °F 16.0 °F 96% 29.07 in 2.5 mi West 3.5 mph - 0.00 in Snow Light Snow
3:26 AM 17.1 °F - 16.0 °F 96% 29.07 in 3.0 mi Calm Calm - 0.00 in Snow Light Snow
3:53 AM 17.1 °F - 16.0 °F 96% 29.08 in 2.0 mi Calm Calm - 0.00 in Snow Light Snow
4:01 AM 18.0 °F - 16.0 °F 92% 29.08 in 1.2 mi Calm Calm - 0.01 in Snow Light Snow
4:20 AM 17.1 °F - 16.0 °F 96% 29.07 in 0.8 mi Calm Calm - 0.02 in Snow Light Snow
4:36 AM 17.1 °F - 16.0 °F 96% 29.07 in 0.5 mi Calm Calm - 0.04 in Fog , Snow Snow
4:53 AM 18.0 °F - 16.0 °F 92% 29.08 in 0.8 mi Calm Calm - 0.05 in Snow Light Snow
4:59 AM 18.0 °F - 16.0 °F 92% 29.08 in 1.0 mi Calm Calm - 0.00 in Snow Light Snow
5:06 AM 18.0 °F 12.7 °F 17.1 °F 96% 29.08 in 0.8 mi WNW 3.5 mph - 0.01 in Snow Light Snow
5:20 AM 18.0 °F - 16.0 °F 92% 29.08 in 0.2 mi Calm Calm - 0.05 in Fog , Snow Heavy Snow
5:33 AM 18.0 °F - 16.0 °F 92% 29.09 in 0.2 mi Calm Calm - 0.09 in Fog , Snow Heavy Snow
5:53 AM 18.0 °F - 16.0 °F 92% 29.09 in 0.5 mi Calm Calm - 0.13 in Fog , Snow Snow
6:00 AM 18.0 °F - 16.0 °F 92% 29.09 in 0.5 mi Calm Calm - 0.01 in Fog , Snow Snow
6:24 AM 18.0 °F - 16.0 °F 92% 29.09 in 0.2 mi Calm Calm - 0.06 in Fog , Snow Heavy Snow
6:32 AM 18.0 °F 12.7 °F 16.0 °F 92% 29.10 in 0.2 mi West 3.5 mph - 0.07 in Fog , Snow Heavy Snow
6:39 AM 18.0 °F - 16.0 °F 92% 29.10 in 0.5 mi Calm Calm - 0.08 in Fog , Snow Snow
6:53 AM 18.0 °F - 17.1 °F 96% 29.11 in 1.2 mi Calm Calm - 0.09 in Snow Light Snow
7:13 AM 18.0 °F - 16.0 °F 92% 29.11 in 1.0 mi Calm Calm - 0.01 in Snow Light Snow
7:18 AM 18.0 °F - 17.1 °F 96% 29.11 in 0.8 mi Calm Calm - 0.01 in Snow Light Snow
7:29 AM 18.0 °F - 17.1 °F 96% 29.11 in 0.2 mi Calm Calm - 0.03 in Fog , Snow Heavy Snow
7:53 AM 18.0 °F - 17.1 °F 96% 29.12 in 0.5 mi Calm Calm - 0.07 in Fog , Snow Snow
9:03 AM 18.0 °F - 17.1 °F 96% 29.13 in 0.5 mi Calm Calm - 0.08 in Fog , Snow Snow
9:23 AM 18.0 °F - 17.1 °F 96% 29.14 in 0.5 mi Calm Calm - 0.10 in Fog , Snow Snow
9:37 AM 19.0 °F - 17.1 °F 92% 29.14 in 0.5 mi Calm Calm - 0.11 in Fog , Snow Snow
9:51 AM 17.6 °F - 17.6 °F 100% 29.15 in 0.8 mi Calm Calm - 0.12 in Snow Light Snow
9:53 AM 18.0 °F - 17.1 °F 96% 29.16 in 0.8 mi Calm Calm - 0.12 in Snow Light Snow
10:45 AM 19.0 °F - 18.0 °F 96% 29.15 in 1.2 mi Calm Calm - 0.02 in Snow Light Snow
10:53 AM 19.0 °F - 17.1 °F 92% 29.16 in 1.8 mi Calm Calm - 0.02 in Snow Light Snow
11:00 AM 19.0 °F - 17.1 °F 92% 29.15 in 2.5 mi Calm Calm - 0.00 in Snow Light Snow
11:18 AM 19.9 °F - 18.0 °F 92% 29.16 in 1.0 mi Calm Calm - 0.00 in Snow Light Snow
11:25 AM 19.0 °F - 18.0 °F 96% 29.16 in 1.0 mi Calm Calm - 0.00 in Snow Light Snow
11:53 AM 19.9 °F - 18.0 °F 92% 29.17 in 1.5 mi Calm Calm - 0.01 in Snow Light Snow
12:11 PM 19.9 °F - 18.0 °F 92% 29.16 in 2.5 mi Calm Calm - 0.00 in Snow Light Snow
12:20 PM 19.9 °F - 18.0 °F 92% 29.17 in 1.2 mi Calm Calm - 0.00 in Snow Light Snow
12:44 PM 19.9 °F - 18.0 °F 92% 29.17 in 0.5 mi Calm Calm - 0.01 in Fog , Snow Snow
12:53 PM 19.9 °F - 18.0 °F 92% 29.18 in 0.5 mi Calm Calm - 0.02 in Fog , Snow Snow
1:11 PM 19.9 °F - 19.0 °F 96% 29.18 in 1.2 mi Calm Calm - 0.01 in Snow Light Snow
1:21 PM 19.9 °F 13.4 °F 19.0 °F 96% 29.18 in 0.5 mi WNW 4.6 mph - 0.01 in Fog , Snow Snow
1:42 PM 21.0 °F - 19.0 °F 92% 29.19 in 1.2 mi Calm Calm - 0.02 in Snow Light Snow
1:49 PM 21.2 °F - 19.4 °F 93% 29.18 in 0.5 mi Calm Calm - 0.03 in Fog , Snow Snow
1:53 PM 21.0 °F - 19.0 °F 92% 29.19 in 0.5 mi Calm Calm - 0.03 in Fog , Snow Snow
2:04 PM 21.0 °F 14.6 °F 19.0 °F 92% 29.18 in 0.2 mi Variable 4.6 mph - 0.01 in Fog , Snow Heavy Snow
2:09 PM 21.0 °F 16.2 °F 19.0 °F 92% 29.18 in 0.5 mi West 3.5 mph - 0.01 in Fog , Snow Snow
2:17 PM 21.0 °F - 19.0 °F 92% 29.19 in 2.0 mi Calm Calm - 0.01 in Snow Light Snow
2:32 PM 21.0 °F - 19.0 °F 92% 29.19 in 0.8 mi Calm Calm - 0.02 in Snow Light Snow
2:53 PM 21.0 °F - 19.9 °F 96% 29.19 in 0.8 mi Calm Calm - 0.02 in Snow Light Snow
3:11 PM 21.0 °F 16.2 °F 19.0 °F 92% 29.19 in 1.2 mi East 3.5 mph - 0.01 in Snow Light Snow
3:18 PM 21.0 °F - 19.0 °F 92% 29.19 in 2.0 mi Calm Calm - 0.01 in Snow Light Snow
3:32 PM 21.0 °F - 19.0 °F 92% 29.20 in 3.0 mi Calm Calm - 0.01 in Snow Light Snow
3:53 PM 21.0 °F - 19.9 °F 96% 29.21 in 4.0 mi Calm Calm - 0.01 in Snow Light Snow
4:53 PM 21.0 °F - 19.9 °F 96% 29.22 in 2.5 mi Calm Calm - 0.00 in Snow Light Snow
5:02 PM 21.0 °F - 19.9 °F 96% 29.21 in 4.0 mi Calm Calm - 0.00 in Snow Light Snow
5:53 PM 21.0 °F - 19.9 °F 96% 29.24 in 9.0 mi Calm Calm - 0.00 in   Overcast
6:53 PM 19.9 °F - 18.0 °F 92% 29.24 in 10.0 mi Calm Calm - N/A   Mostly Cloudy
7:53 PM 18.0 °F - 17.1 °F 96% 29.25 in 10.0 mi Calm Calm - N/A   Overcast
8:28 PM 16.0 °F - 15.1 °F 96% 29.25 in 10.0 mi Calm Calm - N/A   Mostly Cloudy
8:36 PM 16.0 °F - 15.1 °F 96% 29.26 in 10.0 mi Calm Calm - N/A   Mostly Cloudy
8:53 PM 16.0 °F - 15.1 °F 96% 29.27 in 10.0 mi Calm Calm - N/A   Overcast
9:53 PM 19.0 °F - 17.1 °F 92% 29.29 in 10.0 mi Calm Calm - N/A   Overcast
10:19 PM 19.0 °F - 17.1 °F 92% 29.29 in 10.0 mi Calm Calm - N/A   Overcast
10:53 PM 18.0 °F - 17.1 °F 96% 29.30 in 10.0 mi Calm Calm - N/A   Overcast
11:26 PM 15.1 °F - 10.9 °F 84% 29.30 in 10.0 mi Calm Calm - N/A   Mostly Cloudy
11:42 PM 14.0 °F - 9.0 °F 80% 29.30 in 10.0 mi Calm Calm - N/A   Scattered Clouds
11:53 PM 12.9 °F - 9.0 °F 84% 29.31 in 10.0 mi Calm Calm - N/A   Partly Cloudy